sat.trackr.live / text

‹ back to catalog

KUIPER-00275

NORAD 67793 · 2026-030AF

PAYLOAD ACTIVE UNKNOWN

§ Identity

Operator
Country
US
Launch date
2026-02-12
Launch site
FRGUI
Launch vehicle
Mass (kg)
RCS (m²)

External: N2YO · Heavens-Above · Gunter

§ Orbital elements

Epoch: 2026-05-25T04:16:37.305120Z

Period
93.84 min
Inclination
51.8870°
Eccentricity
0.0011128
Mean motion
15.34593033 rev/d
Perigee alt
454.5 km
Apogee alt
469.7 km
Semi-major
6,840.3 km
B*
-9.5966e-3
RAAN
210.5315°
Arg perigee
304.6281°
Mean anomaly
55.3655°
Rev number
1,684

§ Raw data

KUIPER-002751 67793U 26030AF  26145.17820955 -.00314551  00000+0 -95966-2 0  99952 67793  51.8870 210.5315 0011128 304.6281  55.3655 15.34593033 16841

JSON: /api/v1/satellites/67793 · /tle

For live sub-satellite position, see the globe view (requires WebGL).

§ Visibility from observer

Set your observer location to see the next 7 days of passes ≥ 10°. The values pass through the URL so the page stays shareable.

No JS? Fill the form by hand. The geolocation button needs JavaScript.